Voltar ao catálogo

ARKTIKA-M 1

LostMeteoHEO
NORAD 47719·PAYLOAD·🇷🇺 Russia

Lançado Feb 28, 2021 de Baikonur Cosmodrome

Loading…

Próximas Passagens (próximas 24 horas)

TLE

ObsoletoSource: Space-Track

Época: Jul 25, 2026, 20:56 UTC

1 47719U 21016A   26206.87236863 -.00000386  00000-0  00000-0 0  9995
2 47719  63.2598  51.9767 7301002 270.1217  14.4714  2.00607275 39564

Acompanhe ARKTIKA-M 1 em tempo real com AllMySat

Download on the App Store